TimeCST,TemperatureF,Dew PointF,Humidity,Sea Level PressureIn,VisibilityMPH,Wind Direction,Wind SpeedMPH,Gust SpeedMPH,PrecipitationIn,Events,Conditions,WindDirDegrees,DateUTC
12:53 AM,-4.0,-9.0,79,30.31,10.0,NW,8.1,-,N/A,,Clear,320,2013-01-01 06:53:00
1:53 AM,-4.0,-9.9,76,30.32,10.0,NW,6.9,-,N/A,,Clear,320,2013-01-01 07:53:00
2:53 AM,-4.0,-9.9,76,30.33,10.0,NW,9.2,-,N/A,,Clear,320,2013-01-01 08:53:00
3:53 AM,-7.1,-11.9,79,30.34,10.0,West,4.6,-,N/A,,Clear,280,2013-01-01 09:53:00
4:53 AM,-7.1,-11.9,79,30.35,10.0,West,5.8,-,N/A,,Clear,280,2013-01-01 10:53:00
5:53 AM,-7.6,-13.0,77,30.25,10.0,WNW,4.6,-,N/A,,Clear,290,2013-01-01 11:53:00
6:53 AM,-9.4,-14.8,77,30.25,10.0,West,4.6,-,N/A,,Clear,280,2013-01-01 12:53:00
7:53 AM,-8.0,-13.0,79,30.34,10.0,WNW,3.5,-,N/A,,Clear,290,2013-01-01 13:53:00
8:53 AM,-6.0,-13.0,72,30.35,10.0,NW,5.8,-,N/A,,Clear,310,2013-01-01 14:53:00
9:53 AM,-0.0,-6.0,76,30.35,10.0,Calm,Calm,-,N/A,,Overcast,0,2013-01-01 15:53:00
10:53 AM,3.9,-2.9,73,30.34,10.0,Calm,Calm,-,N/A,,Overcast,0,2013-01-01 16:53:00
11:53 AM,9.0,-0.9,64,30.32,10.0,SW,6.9,-,N/A,,Overcast,220,2013-01-01 17:53:00
12:53 PM,10.9,1.0,64,30.30,10.0,SSW,8.1,-,N/A,,Overcast,210,2013-01-01 18:53:00
1:53 PM,12.0,-0.0,59,30.27,10.0,SW,8.1,-,N/A,,Overcast,220,2013-01-01 19:53:00
2:53 PM,12.0,1.0,61,30.27,10.0,WSW,6.9,-,N/A,,Overcast,240,2013-01-01 20:53:00
3:53 PM,12.9,3.0,65,30.26,10.0,WSW,9.2,-,N/A,,Overcast,240,2013-01-01 21:53:00
4:53 PM,12.9,3.9,67,30.25,10.0,WSW,9.2,-,N/A,,Overcast,240,2013-01-01 22:53:00
5:53 PM,12.9,5.0,71,30.24,10.0,SW,6.9,-,N/A,,Overcast,220,2013-01-01 23:53:00
6:53 PM,14.0,7.0,74,30.22,10.0,SSW,6.9,-,N/A,,Overcast,200,2013-01-02 00:53:00
7:53 PM,14.0,8.1,77,30.22,10.0,SSW,6.9,-,N/A,,Overcast,210,2013-01-02 01:53:00
8:53 PM,12.0,6.1,77,30.20,10.0,SSW,6.9,-,N/A,,Scattered Clouds,210,2013-01-02 02:53:00
9:19 PM,10.4,5.0,79,30.12,10.0,SSW,9.2,-,N/A,,Mostly Cloudy,200,2013-01-02 03:19:00
9:53 PM,9.0,3.0,77,30.19,10.0,South,6.9,-,N/A,,Partly Cloudy,190,2013-01-02 03:53:00
10:53 PM,6.1,-0.0,76,30.17,10.0,SSW,8.1,-,N/A,,Clear,200,2013-01-02 04:53:00
11:53 PM,5.0,-0.9,76,30.15,10.0,South,5.8,-,N/A,,Clear,190,2013-01-02 05:53:00